Regional Weather Roundup
Issued by NWS

Home | Current Version | Previous Version | Graphics & Text | Print | Product List | Glossary On
Versions: 1 2 3 4 5 6 7 8 9 10 11 12 13 14 15 16 17 18 19 20 21 22 23 24 25 26 27 28 29 30 31 32 33 34 35 36 37 38 39 40 41 42 43 44 45 46 47 48 49 50
000
ASUS43 KLSX 270110
RWRMO

WEATHER SUMMARY FOR MISSOURI
NATIONAL WEATHER SERVICE SPRINGFIELD MO
800 PM CDT TUE JUL 26 2016

NOTE: "FAIR" INDICATES FEW OR NO CLOUDS BELOW 12,000 FEET WITH NO
       SIGNIFICANT WEATHER AND/OR OBSTRUCTIONS TO VISIBILITY.
       CURRENT SKY AND/OR WEATHER CONDITIONS ARE NOT AVAILABLE FOR
       CHILLICOTHE AND FARMINGTON.

MOZ001>031-035>038-043-044-053-054-270200-
...NORTHERN AND WESTERN MISSOURI...

CITY           SKY/WX    TMP DP  RH WIND       PRES   REMARKS
KANSAS CTY INT PTCLDY    83  66  56 E9        30.01R
KANSAS C DTWN  CLEAR     84  67  56 E12       29.99R
LEE`S SUMMIT   CLOUDY    83  68  60 NE5       30.01R
ST JOSEPH      CLEAR     83  65  54 E9        30.00R
CHILLICOTHE      N/A     83  69  62 SE3       30.01F
KIRKSVILLE     CLEAR     81  65  58 E3        30.03S

$$
MOZ066>068-077>081-088>096-101>105-270200-
...SOUTHWEST MISSOURI...

CITY           SKY/WX    TMP DP  RH WIND       PRES   REMARKS
SPRINGFIELD    CLOUDY    75  72  90 SE5       29.99F
JOPLIN         CLOUDY    75  73  93 CALM      29.99S
BRANSON        CLOUDY    75  75 100 CALM      30.02R FOG

$$
MOZ032>034-039>042-045>050-055>058-069>072-270200-
...CENTRAL MISSOURI...

CITY           SKY/WX    TMP DP  RH WIND       PRES   REMARKS
COLUMBIA       MOCLDY    81  74  79 NE3       29.99F
JEFFERSON CITY PTCLDY    80  72  76 CALM      29.97F
ROLLA          PTCLDY    76  73  91 CALM      29.98F
SEDALIA        CLEAR     83  71  67 NE5       30.00F
WHITEMAN AFB   PTCLDY    82  73  76 NE5       29.98S
OSAGE BEACH    CLOUDY    77  72  84 S5        29.99F

$$
MOZ051-052-059>065-270200-
...EAST CENTRAL MISSOURI...

CITY           SKY/WX    TMP DP  RH WIND       PRES   REMARKS
ST LOUIS INTL  CLOUDY    82  75  79 N3        29.98R THUNDER
SPIRIT OF STL  CLOUDY    81  74  79 CALM      29.96S
ST CHARLES     MOCLDY    80  73  79 SE5       29.97R

$$
MOZ072>076-082>087-097>100-106>115-270200-
...SOUTH CENTRAL AND SOUTHEAST MISSOURI...

CITY           SKY/WX    TMP DP  RH WIND       PRES   REMARKS
CAPE GIRARDEAU CLOUDY    76  74  93 N3        29.96R
FARMINGTON     CLOUDY    73  72  96 CALM      29.99F
POPLAR BLUFF   PTCLDY    78  72  81 N6        29.95S
WEST PLAINS    CLOUDY    76  72  87 CALM      30.01F

$$




USA.gov is the U.S. government's official web portal to all federal, state and local government web resources and services.